����,���ϕ���(m/s),���ϕ���,�ő�u�ԕ���(m/s),�ő啗��������,�C��(��),���x(%),10���Ԉړ��ώZ�J��(mm),1���Ԉړ��ώZ�J��(mm),���J��(mm),�݌v�J��(mm),����(���ώZ)(MJ/m2),����(���ώZ)(min),���n�C��(hPa),�C�ʋC��(hPa)
2023-03-27T00:00:00+09:00,1,�k�k��,2.1,�k�k��,9,89.6,0,0,20,22.5,3.2,0,1003.7,1017.9
2023-03-27T00:01:00+09:00,0.9,�k�k��,2.1,�k�k��,8.9,89.5,0,0,0,22.5,0,0,1003.8,1018
2023-03-27T00:02:00+09:00,0.9,�k��,1.9,�k�k��,8.9,89.6,0,0,0,22.5,0,0,1003.8,1018
2023-03-27T00:03:00+09:00,0.8,�k�k��,1.6,�k��,8.9,89.8,0,0,0,22.5,0,0,1003.8,1018
2023-03-27T00:04:00+09:00,0.8,�k�k��,1.8,�k,8.8,89.9,0,0,0,22.5,0,0,1003.8,1018
2023-03-27T00:05:00+09:00,0.8,�k�k��,1.8,�k,8.7,89.7,0,0,0,22.5,0,0,1003.8,1018
2023-03-27T00:06:00+09:00,0.8,�k�k��,1.8,�k,8.8,90.3,0,0,0,22.5,0,0,1003.8,1018
2023-03-27T00:07:00+09:00,0.8,�k�k��,1.8,�k,8.9,90.9,0,0,0,22.5,0,0,1003.8,1018
2023-03-27T00:08:00+09:00,0.8,�k�k��,1.8,�k,8.9,91.1,0,0,0,22.5,0,0,1003.8,1018
2023-03-27T00:09:00+09:00,0.8,�k�k��,1.8,�k,8.9,91.2,0,0,0,22.5,0,0,1003.8,1018
2023-03-27T00:10:00+09:00,0.9,�k,1.8,�k,8.9,91.2,0,0,0,22.5,0,0,1003.8,1018
2023-03-27T00:11:00+09:00,1,�k,2.1,�k,8.9,91.1,0,0,0,22.5,0,0,1003.8,1018
2023-03-27T00:12:00+09:00,1.1,�k,2.2,�k�k��,8.8,90.9,0,0,0,22.5,0,0,1003.7,1017.9
2023-03-27T00:13:00+09:00,1.2,�k,2.5,�k�k��,8.8,90.9,0,0,0,22.5,0,0,1003.7,1017.9
2023-03-27T00:14:00+09:00,1.2,�k,3.2,�k��,8.8,91.1,0,0,0,22.5,0,0,1003.7,1017.9
2023-03-27T00:15:00+09:00,1.3,�k,3.2,�k��,8.8,91.3,0,0,0,22.5,0,0,1003.8,1018
2023-03-27T00:16:00+09:00,1.4,�k�k��,3.2,�k��,8.9,91.5,0,0,0,22.5,0,0,1003.8,1018
2023-03-27T00:17:00+09:00,1.5,�k�k��,3.2,�k��,9,91.8,0,0,0,22.5,0,0,1003.9,1018.1
2023-03-27T00:18:00+09:00,1.5,�k�k��,3.2,�k��,8.8,91.5,0,0,0,22.5,0,0,1003.8,1018
2023-03-27T00:19:00+09:00,1.6,�k�k��,3.2,�k��,8.7,90.9,0,0,0,22.5,0,0,1003.8,1018
2023-03-27T00:20:00+09:00,1.6,�k�k��,3.2,�k��,8.6,90.8,0,0,0,22.5,0,0,1003.9,1018.1
2023-03-27T00:21:00+09:00,1.6,�k�k��,3.2,�k��,8.6,90.9,0,0,0,22.5,0,0,1003.9,1018.1
2023-03-27T00:22:00+09:00,1.6,�k�k��,4,�k��,8.7,91.3,0,0,0,22.5,0,0,1003.9,1018.1
2023-03-27T00:23:00+09:00,1.6,�k�k��,4,�k��,8.8,91.5,0,0,0,22.5,0,0,1004,1018.2
2023-03-27T00:24:00+09:00,1.5,�k,4,�k��,9,91.8,0,0,0,22.5,0,0,1004.1,1018.3
2023-03-27T00:25:00+09:00,1.4,�k,4,�k��,8.9,91.4,0,0,0,22.5,0,0,1004.1,1018.3
2023-03-27T00:26:00+09:00,1.4,�k,4,�k��,8.8,90.5,0,0,0,22.5,0,0,1004.1,1018.3
2023-03-27T00:27:00+09:00,1.3,�k,4,�k��,8.8,90.2,0,0,0,22.5,0,0,1004.1,1018.3
2023-03-27T00:28:00+09:00,1.4,�k,4,�k��,8.7,90.3,0,0,0,22.5,0,0,1004.1,1018.3
2023-03-27T00:29:00+09:00,1.4,�k,4,�k��,8.7,90,0,0,0,22.5,0,0,1004.1,1018.3
2023-03-27T00:30:00+09:00,1.4,�k,4,�k��,8.7,90.4,0,0,0,22.5,0,0,1004.1,1018.3
2023-03-27T00:31:00+09:00,1.4,�k,4,�k��,8.7,90.6,0,0,0,22.5,0,0,1004.2,1018.4
2023-03-27T00:32:00+09:00,1.3,�k,2.9,�k��,8.8,90.8,0,0,0,22.5,0,0,1004.2,1018.4
2023-03-27T00:33:00+09:00,1.3,�k�k��,2.8,���k��,8.7,90.8,0,0,0,22.5,0,0,1004.2,1018.4
2023-03-27T00:34:00+09:00,1.3,�k�k��,2.8,���k��,8.6,90.7,0,0,0,22.5,0,0,1004.2,1018.4
2023-03-27T00:35:00+09:00,1.4,�k�k��,2.8,���k��,8.7,90.9,0,0,0,22.5,0,0,1004.1,1018.3
2023-03-27T00:36:00+09:00,1.4,�k�k��,2.8,�k,8.7,91.2,0,0,0,22.5,0,0,1004.1,1018.3
2023-03-27T00:37:00+09:00,1.4,�k�k��,2.8,�k,8.7,91.2,0,0,0,22.5,0,0,1004.1,1018.3
2023-03-27T00:38:00+09:00,1.3,�k�k��,2.8,�k,8.7,91.2,0,0,0,22.5,0,0,1004.1,1018.3
2023-03-27T00:39:00+09:00,1.3,�k�k��,2.8,�k,8.7,91.3,0,0,0,22.5,0,0,1004.1,1018.3
2023-03-27T00:40:00+09:00,1.3,�k�k��,2.8,�k,8.6,91.1,0,0,0,22.5,0,0,1004.2,1018.4
2023-03-27T00:41:00+09:00,1.2,�k�k��,2.8,�k,8.6,91,0,0,0,22.5,0,0,1004.1,1018.3
2023-03-27T00:42:00+09:00,1.3,�k�k��,2.8,�k,8.5,91,0,0,0,22.5,0,0,1004.1,1018.3
2023-03-27T00:43:00+09:00,1.3,�k�k��,2.8,�k,8.5,91.1,0,0,0,22.5,0,0,1004.1,1018.3
2023-03-27T00:44:00+09:00,1.2,�k�k��,2.4,�k��,8.5,91.4,0,0,0,22.5,0,0,1004.1,1018.3
2023-03-27T00:45:00+09:00,1.1,�k�k��,2.1,�k��,8.5,91.6,0,0,0,22.5,0,0,1004,1018.2
2023-03-27T00:46:00+09:00,1.1,�k�k��,2.1,�k��,8.5,91.9,0,0,0,22.5,0,0,1004,1018.2
2023-03-27T00:47:00+09:00,1.2,�k�k��,2.1,�k��,8.4,92.1,0,0,0,22.5,0,0,1004,1018.2
2023-03-27T00:48:00+09:00,1.2,�k,2.6,�k�k��,8.4,92.2,0,0,0,22.5,0,0,1004,1018.2
2023-03-27T00:49:00+09:00,1.2,�k,2.6,�k�k��,8.5,92.5,0,0,0,22.5,0,0,1003.9,1018.1
2023-03-27T00:50:00+09:00,1.2,�k,2.6,�k�k��,8.4,92.6,0,0,0,22.5,0,0,1004,1018.2
2023-03-27T00:51:00+09:00,1.1,�k,2.6,�k�k��,8.4,92.5,0,0,0,22.5,0,0,1004,1018.2
2023-03-27T00:52:00+09:00,1.1,�k,2.6,�k�k��,8.4,92.5,0,0,0,22.5,0,0,1004,1018.2
2023-03-27T00:53:00+09:00,1.1,�k�k��,2.6,�k�k��,8.4,92.6,0,0,0,22.5,0,0,1004.1,1018.3
2023-03-27T00:54:00+09:00,1.1,�k�k��,2.6,�k�k��,8.4,92.7,0,0,0,22.5,0,0,1004,1018.2
2023-03-27T00:55:00+09:00,1.1,�k�k��,2.6,�k�k��,8.4,92.5,0,0,0,22.5,0,0,1004.1,1018.3
2023-03-27T00:56:00+09:00,1,�k�k��,2.6,�k�k��,8.4,92.4,0,0,0,22.5,0,0,1004.1,1018.3
2023-03-27T00:57:00+09:00,1,�k�k��,2.6,�k�k��,8.4,92.4,0,0,0,22.5,0,0,1004.1,1018.3
2023-03-27T00:58:00+09:00,0.9,�k�k��,1.7,�k��,8.4,92.4,0,0,0,22.5,0,0,1004.1,1018.3
2023-03-27T00:59:00+09:00,0.9,�k�k��,1.8,���k��,8.5,92.5,0,0,0,22.5,0,0,1004.1,1018.3
2023-03-27T01:00:00+09:00,0.9,�k�k��,1.8,���k��,8.4,92.4,0,0,0,22.5,0,0,1004.1,1018.3
2023-03-27T01:01:00+09:00,0.9,�k�k��,1.8,���k��,8.4,92.2,0,0,0,22.5,0,0,1004.1,1018.3
2023-03-27T01:02:00+09:00,0.8,�k,1.8,���k��,8.4,92.1,0,0,0,22.5,0,0,1004.2,1018.4
2023-03-27T01:03:00+09:00,0.9,�k,1.8,���k��,8.4,92.1,0,0,0,22.5,0,0,1004.1,1018.3
2023-03-27T01:04:00+09:00,0.8,�k,1.8,���k��,8.4,91.9,0,0,0,22.5,0,0,1004.1,1018.3
2023-03-27T01:05:00+09:00,0.8,�k,1.8,���k��,8.3,91.9,0,0,0,22.5,0,0,1004.1,1018.3
2023-03-27T01:06:00+09:00,0.9,�k,2,���k��,8.3,92.1,0,0,0,22.5,0,0,1004.1,1018.3
2023-03-27T01:07:00+09:00,1,�k,2.2,�k��,8.3,92.1,0,0,0,22.5,0,0,1004.1,1018.3
2023-03-27T01:08:00+09:00,1.1,�k,2.2,�k��,8.3,92.1,0,0,0,22.5,0,0,1004.2,1018.4
2023-03-27T01:09:00+09:00,1.2,�k,2.7,�k��,8.2,92.1,0,0,0,22.5,0,0,1004.2,1018.4
2023-03-27T01:10:00+09:00,1.4,�k�k��,2.9,�k��,8.2,92.1,0,0,0,22.5,0,0,1004.1,1018.3
2023-03-27T01:11:00+09:00,1.5,�k�k��,2.9,�k��,8.2,92.3,0,0,0,22.5,0,0,1004.2,1018.4
2023-03-27T01:12:00+09:00,1.7,�k�k��,3.8,�k��,8.2,92.3,0,0,0,22.5,0,0,1004.1,1018.3
2023-03-27T01:13:00+09:00,1.8,�k��,3.8,�k��,8.2,92.3,0,0,0,22.5,0,0,1004.2,1018.4
2023-03-27T01:14:00+09:00,2,�k��,3.8,�k��,8.3,92.3,0,0,0,22.5,0,0,1004.1,1018.3
2023-03-27T01:15:00+09:00,2.1,�k��,3.8,�k��,8.4,92.1,0,0,0,22.5,0,0,1004.1,1018.3
2023-03-27T01:16:00+09:00,2.1,�k��,3.8,�k��,8.4,91.7,0,0,0,22.5,0,0,1004.1,1018.3
2023-03-27T01:17:00+09:00,2,�k��,4.2,�k�k��,8.5,91,0,0,0,22.5,0,0,1004.1,1018.3
2023-03-27T01:18:00+09:00,2.1,�k�k��,4.2,�k�k��,8.5,90.4,0,0,0,22.5,0,0,1004.1,1018.3
2023-03-27T01:19:00+09:00,2.1,�k�k��,4.2,�k�k��,8.6,90,0,0,0,22.5,0,0,1004.1,1018.3
2023-03-27T01:20:00+09:00,2.1,�k�k��,4.2,�k�k��,8.6,89.4,0,0,0,22.5,0,0,1004.1,1018.3
2023-03-27T01:21:00+09:00,2.1,�k�k��,4.2,�k�k��,8.7,89,0,0,0,22.5,0,0,1004.1,1018.3
2023-03-27T01:22:00+09:00,1.9,�k�k��,4.2,�k�k��,8.6,88.3,0,0,0,22.5,0,0,1004.2,1018.4
2023-03-27T01:23:00+09:00,1.8,�k�k��,4.2,�k�k��,8.5,87.4,0,0,0,22.5,0,0,1004.2,1018.4
2023-03-27T01:24:00+09:00,1.8,�k�k��,4.2,�k�k��,8.5,87,0,0,0,22.5,0,0,1004.2,1018.4
2023-03-27T01:25:00+09:00,1.7,�k�k��,4.2,�k�k��,8.5,86.7,0,0,0,22.5,0,0,1004.2,1018.4
2023-03-27T01:26:00+09:00,1.7,�k�k��,4.2,�k�k��,8.5,86.5,0,0,0,22.5,0,0,1004.2,1018.4
2023-03-27T01:27:00+09:00,1.7,�k�k��,3.8,�k�k��,8.5,86.7,0,0,0,22.5,0,0,1004.1,1018.3
2023-03-27T01:28:00+09:00,1.6,�k�k��,3.6,�k�k��,8.4,86.2,0,0,0,22.5,0,0,1004.1,1018.3
2023-03-27T01:29:00+09:00,1.5,�k�k��,3.6,�k�k��,8.5,86.2,0,0,0,22.5,0,0,1004.1,1018.3
2023-03-27T01:30:00+09:00,1.5,�k,3.2,�k,8.3,86,0,0,0,22.5,0,0,1004.1,1018.3
2023-03-27T01:31:00+09:00,1.5,�k,3.2,�k,8.2,85.7,0,0,0,22.5,0,0,1004.2,1018.4
2023-03-27T01:32:00+09:00,1.6,�k,3.2,�k,8.1,86,0,0,0,22.5,0,0,1004.2,1018.4
2023-03-27T01:33:00+09:00,1.5,�k,3.2,�k,8,86.5,0,0,0,22.5,0,0,1004.1,1018.3
2023-03-27T01:34:00+09:00,1.5,�k�k��,3.2,�k,8,87.2,0,0,0,22.5,0,0,1004.1,1018.3
2023-03-27T01:35:00+09:00,1.6,�k�k��,3.5,�k�k��,7.9,87.6,0,0,0,22.5,0,0,1004.1,1018.3
2023-03-27T01:36:00+09:00,1.7,�k�k��,3.5,�k�k��,7.9,88.2,0,0,0,22.5,0,0,1004.1,1018.3
2023-03-27T01:37:00+09:00,1.9,�k�k��,3.9,�k��,7.8,88.6,0,0,0,22.5,0,0,1004,1018.2
2023-03-27T01:38:00+09:00,1.9,�k�k��,3.9,�k��,7.7,88.8,0,0,0,22.5,0,0,1004,1018.2
2023-03-27T01:39:00+09:00,1.8,�k�k��,3.9,�k��,7.8,89.5,0,0,0,22.5,0,0,1004,1018.2
2023-03-27T01:40:00+09:00,1.7,�k�k��,3.9,�k��,7.7,89.7,0,0,0,22.5,0,0,1004,1018.2
2023-03-27T01:41:00+09:00,1.7,�k�k��,3.9,�k��,7.7,90,0,0,0,22.5,0,0,1004,1018.2
2023-03-27T01:42:00+09:00,1.7,�k�k��,3.9,�k��,7.8,90.5,0,0,0,22.5,0,0,1004.1,1018.3
2023-03-27T01:43:00+09:00,1.7,�k�k��,3.9,�k��,7.7,90.7,0,0,0,22.5,0,0,1004.1,1018.3
2023-03-27T01:44:00+09:00,1.6,�k�k��,3.9,�k��,7.8,90.8,0,0,0,22.5,0,0,1004.1,1018.3
2023-03-27T01:45:00+09:00,1.5,�k�k��,3.9,�k��,7.8,90.8,0,0,0,22.5,0,0,1004,1018.2
2023-03-27T01:46:00+09:00,1.6,�k�k��,3.9,�k��,7.8,90.9,0,0,0,22.5,0,0,1004,1018.2
2023-03-27T01:47:00+09:00,1.5,�k,3.6,�k�k��,7.7,90.7,0,0,0,22.5,0,0,1004,1018.2
2023-03-27T01:48:00+09:00,1.6,�k,3.6,�k�k��,7.9,90.9,0,0,0,22.5,0,0,1004,1018.2
2023-03-27T01:49:00+09:00,1.7,�k,3.6,�k�k��,7.8,90.9,0,0,0,22.5,0,0,1004,1018.2
2023-03-27T01:50:00+09:00,1.8,�k,3.6,�k�k��,7.8,90.8,0,0,0,22.5,0,0,1004,1018.2
2023-03-27T01:51:00+09:00,1.8,�k,3.6,�k�k��,7.9,90.9,0,0,0,22.5,0,0,1004,1018.2
2023-03-27T01:52:00+09:00,1.9,�k,3.6,�k�k��,7.8,90.6,0,0,0,22.5,0,0,1003.9,1018.1
2023-03-27T01:53:00+09:00,2,�k,3.6,�k�k��,7.8,90.4,0,0,0,22.5,0,0,1003.9,1018.1
2023-03-27T01:54:00+09:00,2,�k,3.6,�k�k��,7.8,90.6,0,0,0,22.5,0,0,1003.9,1018.1
2023-03-27T01:55:00+09:00,2.1,�k,3.6,�k�k��,7.7,90.5,0,0,0,22.5,0,0,1003.9,1018.1
2023-03-27T01:56:00+09:00,2,�k,3.6,�k�k��,7.6,90,0,0,0,22.5,0,0,1003.9,1018.1
2023-03-27T01:57:00+09:00,2,�k,3.2,�k,7.6,90.1,0,0,0,22.5,0,0,1003.8,1018
2023-03-27T01:58:00+09:00,2,�k,3.3,�k,7.7,90.3,0,0,0,22.5,0,0,1003.8,1018
2023-03-27T01:59:00+09:00,1.9,�k�k��,3.3,�k,7.7,90.6,0,0,0,22.5,0,0,1003.8,1018
2023-03-27T02:00:00+09:00,1.9,�k�k��,3.3,�k,7.7,90.4,0,0,0,22.5,0,0,1003.8,1018
2023-03-27T02:01:00+09:00,1.9,�k�k��,3.3,�k,7.7,90.2,0,0,0,22.5,0,0,1003.7,1017.9
2023-03-27T02:02:00+09:00,1.8,�k�k��,3.3,�k,7.6,90.1,0,0,0,22.5,0,0,1003.7,1017.9
2023-03-27T02:03:00+09:00,1.8,�k�k��,3.3,�k,7.7,90,0,0,0,22.5,0,0,1003.7,1017.9
2023-03-27T02:04:00+09:00,1.7,�k�k��,3.3,�k,7.7,90.2,0,0,0,22.5,0,0,1003.7,1017.9
2023-03-27T02:05:00+09:00,1.7,�k�k��,3.3,�k,7.7,90.1,0,0,0,22.5,0,0,1003.7,1017.9
2023-03-27T02:06:00+09:00,1.7,�k,3.3,�k,7.7,90.1,0,0,0,22.5,0,0,1003.8,1018
2023-03-27T02:07:00+09:00,1.6,�k,3.3,�k,7.7,90.1,0,0,0,22.5,0,0,1003.8,1018
2023-03-27T02:08:00+09:00,1.5,�k,2.9,�k,7.8,90.2,0,0,0,22.5,0,0,1003.8,1018
2023-03-27T02:09:00+09:00,1.6,�k,2.9,�k,7.9,90.2,0,0,0,22.5,0,0,1003.8,1018
2023-03-27T02:10:00+09:00,1.7,�k,5.1,�k��,8,90.3,0,0,0,22.5,0,0,1003.9,1018.1
2023-03-27T02:11:00+09:00,1.8,�k�k��,5.8,�k��,8.1,89.9,0,0,0,22.5,0,0,1003.9,1018.1
2023-03-27T02:12:00+09:00,1.8,�k�k��,5.8,�k��,8.1,89.5,0,0,0,22.5,0,0,1003.9,1018.1
2023-03-27T02:13:00+09:00,1.8,�k�k��,5.8,�k��,8.2,88.7,0,0,0,22.5,0,0,1003.9,1018.1
2023-03-27T02:14:00+09:00,1.9,�k�k��,5.8,�k��,8.2,88,0,0,0,22.5,0,0,1003.9,1018.1
2023-03-27T02:15:00+09:00,1.9,�k�k��,5.8,�k��,8.1,87.3,0,0,0,22.5,0,0,1003.9,1018.1
2023-03-27T02:16:00+09:00,2.1,�k�k��,5.8,�k��,8,86.6,0,0,0,22.5,0,0,1003.8,1018
2023-03-27T02:17:00+09:00,2.2,�k�k��,5.8,�k��,8.1,86.4,0,0,0,22.5,0,0,1003.8,1018
2023-03-27T02:18:00+09:00,2.2,�k�k��,5.8,�k��,8.2,86.3,0,0,0,22.5,0,0,1003.7,1017.9
2023-03-27T02:19:00+09:00,2.1,�k�k��,5.8,�k��,8.2,85.8,0,0,0,22.5,0,0,1003.6,1017.8
2023-03-27T02:20:00+09:00,2.1,�k�k��,5.8,�k��,8.2,85.3,0,0,0,22.5,0,0,1003.6,1017.8
2023-03-27T02:21:00+09:00,2,�k�k��,5.2,�k��,8.2,85,0,0,0,22.5,0,0,1003.6,1017.8
2023-03-27T02:22:00+09:00,2.1,�k�k��,5.2,�k��,8.2,84.9,0,0,0,22.5,0,0,1003.5,1017.7
2023-03-27T02:23:00+09:00,2.4,�k�k��,5.9,���k��,8.2,84.7,0,0,0,22.5,0,0,1003.5,1017.7
2023-03-27T02:24:00+09:00,2.4,�k�k��,5.9,���k��,8.1,84.5,0,0,0,22.5,0,0,1003.4,1017.6
2023-03-27T02:25:00+09:00,2.6,�k��,5.9,���k��,8.2,84.2,0,0,0,22.5,0,0,1003.5,1017.7
2023-03-27T02:26:00+09:00,2.5,�k��,5.9,���k��,8.1,84.1,0,0,0,22.5,0,0,1003.4,1017.6
2023-03-27T02:27:00+09:00,2.5,�k��,5.9,���k��,8.2,84.1,0,0,0,22.5,0,0,1003.4,1017.6
2023-03-27T02:28:00+09:00,2.7,�k��,5.9,���k��,8.2,84.2,0,0,0,22.5,0,0,1003.4,1017.6
2023-03-27T02:29:00+09:00,2.8,�k��,5.9,���k��,8.2,84.1,0,0,0,22.5,0,0,1003.4,1017.6
2023-03-27T02:30:00+09:00,2.8,�k��,5.9,���k��,8.1,83.8,0,0,0,22.5,0,0,1003.3,1017.5
2023-03-27T02:31:00+09:00,2.7,�k�k��,5.9,���k��,8,84,0,0,0,22.5,0,0,1003.2,1017.4
2023-03-27T02:32:00+09:00,2.5,�k�k��,5.9,���k��,8.2,84.4,0,0,0,22.5,0,0,1003.1,1017.3
2023-03-27T02:33:00+09:00,2.4,�k�k��,6.2,�k,8,84.3,0,0,0,22.5,0,0,1003.1,1017.3
2023-03-27T02:34:00+09:00,2.5,�k�k��,6.2,�k,8,84.3,0,0,0,22.5,0,0,1003,1017.2
2023-03-27T02:35:00+09:00,2.4,�k�k��,6.2,�k,8.1,84.6,0,0,0,22.5,0,0,1003,1017.2
2023-03-27T02:36:00+09:00,2.4,�k�k��,6.2,�k,8.1,84.6,0,0,0,22.5,0,0,1003,1017.2
2023-03-27T02:37:00+09:00,2.3,�k�k��,6.2,�k,8.1,84.5,0,0,0,22.5,0,0,1003,1017.2
2023-03-27T02:38:00+09:00,2.1,�k�k��,6.2,�k,8.1,84.5,0,0,0,22.5,0,0,1003.1,1017.3
2023-03-27T02:39:00+09:00,2,�k�k��,6.2,�k,8.1,84.6,0,0,0,22.5,0,0,1003.2,1017.4
2023-03-27T02:40:00+09:00,1.9,�k�k��,6.2,�k,8,84.4,0,0,0,22.5,0,0,1003.2,1017.4
2023-03-27T02:41:00+09:00,1.9,�k�k��,6.2,�k,8,84.6,0,0,0,22.5,0,0,1003.3,1017.5
2023-03-27T02:42:00+09:00,1.8,�k�k��,6.2,�k,8,84.7,0,0,0,22.5,0,0,1003.3,1017.5
2023-03-27T02:43:00+09:00,1.7,�k�k��,5.6,�k,8,85.1,0,0,0,22.5,0,0,1003.3,1017.5
2023-03-27T02:44:00+09:00,1.4,�k�k��,4.2,���k��,7.9,85.2,0,0,0,22.5,0,0,1003.2,1017.4
2023-03-27T02:45:00+09:00,1.3,�k,3.6,�k��,8,85.4,0,0,0,22.5,0,0,1003.2,1017.4
2023-03-27T02:46:00+09:00,1.2,�k,2.9,�k��,7.9,85.6,0,0,0,22.5,0,0,1003.2,1017.4
2023-03-27T02:47:00+09:00,1.2,�k,2.2,�k��,7.9,86,0,0,0,22.5,0,0,1003.2,1017.4
2023-03-27T02:48:00+09:00,1.1,�k,2.2,�k��,7.9,86,0,0,0,22.5,0,0,1003.2,1017.4
2023-03-27T02:49:00+09:00,1.1,�k�k��,2.3,�k�k��,7.7,86.1,0,0,0,22.5,0,0,1003.2,1017.4
2023-03-27T02:50:00+09:00,1,�k�k��,2.3,�k�k��,7.7,86.1,0,0,0,22.5,0,0,1003.2,1017.4
2023-03-27T02:51:00+09:00,1,�k�k��,2.3,�k�k��,7.6,86.4,0,0,0,22.5,0,0,1003.2,1017.4
2023-03-27T02:52:00+09:00,1,�k�k��,2.6,�k��,7.7,86.9,0,0,0,22.5,0,0,1003.2,1017.4
2023-03-27T02:53:00+09:00,1.2,�k�k��,3.9,�k��,7.7,87.2,0,0,0,22.5,0,0,1003.2,1017.4
2023-03-27T02:54:00+09:00,1.4,�k�k��,3.9,�k��,7.9,87.9,0,0,0,22.5,0,0,1003.2,1017.4
2023-03-27T02:55:00+09:00,1.6,�k,4.3,�k��,8.1,88.3,0,0,0,22.5,0,0,1003.3,1017.5
2023-03-27T02:56:00+09:00,1.7,�k,4.3,�k��,8.2,88,0,0,0,22.5,0,0,1003.3,1017.5
2023-03-27T02:57:00+09:00,1.9,�k,4.3,�k��,8.2,87,0,0,0,22.5,0,0,1003.3,1017.5
2023-03-27T02:58:00+09:00,2,�k�k��,4.3,�k��,8.3,86.1,0,0,0,22.5,0,0,1003.4,1017.6
2023-03-27T02:59:00+09:00,2.1,�k�k��,4.3,�k��,8.4,85.5,0,0,0,22.5,0,0,1003.4,1017.6
2023-03-27T03:00:00+09:00,2.2,�k��,4.3,�k��,8.3,84.7,0,0,0,22.5,0,0,1003.4,1017.6
2023-03-27T03:01:00+09:00,2.3,�k��,4.3,�k��,8.3,84.2,0,0,0,22.5,0,0,1003.3,1017.5
2023-03-27T03:02:00+09:00,2.2,�k��,4.3,�k��,8.2,83.5,0,0,0,22.5,0,0,1003.4,1017.6
2023-03-27T03:03:00+09:00,2.1,�k��,4.3,�k��,8.1,83.2,0,0,0,22.5,0,0,1003.5,1017.7
2023-03-27T03:04:00+09:00,1.9,�k��,4.3,�k��,8,83.2,0,0,0,22.5,0,0,1003.5,1017.7
2023-03-27T03:05:00+09:00,1.7,�k��,3.8,�k��,8,83.3,0,0,0,22.5,0,0,1003.5,1017.7
2023-03-27T03:06:00+09:00,1.5,�k��,3.8,�k��,7.9,83.5,0,0,0,22.5,0,0,1003.5,1017.7
2023-03-27T03:07:00+09:00,1.2,�k��,3.4,�k��,7.8,83.7,0,0,0,22.5,0,0,1003.4,1017.6
2023-03-27T03:08:00+09:00,1.1,�k�k��,2.8,���k��,7.7,84.2,0,0,0,22.5,0,0,1003.5,1017.7
2023-03-27T03:09:00+09:00,1,�k�k��,2.8,���k��,7.6,84.5,0,0,0,22.5,0,0,1003.5,1017.7
2023-03-27T03:10:00+09:00,0.9,�k,2.2,���k��,7.6,85.2,0,0,0,22.5,0,0,1003.6,1017.8
2023-03-27T03:11:00+09:00,0.9,�k�k��,1.8,�k�k��,7.5,85.8,0,0,0,22.5,0,0,1003.5,1017.7
2023-03-27T03:12:00+09:00,0.9,�k�k��,1.9,�k��,7.5,86.2,0,0,0,22.5,0,0,1003.4,1017.6
2023-03-27T03:13:00+09:00,1,�k�k��,1.9,�k��,7.5,86.8,0,0,0,22.5,0,0,1003.3,1017.5
2023-03-27T03:14:00+09:00,1.1,�k��,1.9,�k��,7.5,87.2,0,0,0,22.5,0,0,1003.3,1017.5
2023-03-27T03:15:00+09:00,1.2,�k��,2,�k�k��,7.5,87.8,0,0,0,22.5,0,0,1003.4,1017.6
2023-03-27T03:16:00+09:00,1.3,�k��,2,�k�k��,7.4,88.2,0,0,0,22.5,0,0,1003.4,1017.6
2023-03-27T03:17:00+09:00,1.4,�k��,2,�k�k��,7.5,88.6,0,0,0,22.5,0,0,1003.4,1017.6
2023-03-27T03:18:00+09:00,1.4,�k��,2,�k�k��,7.4,88.9,0,0,0,22.5,0,0,1003.4,1017.6
2023-03-27T03:19:00+09:00,1.4,�k��,2,�k�k��,7.4,89.1,0,0,0,22.5,0,0,1003.4,1017.6
2023-03-27T03:20:00+09:00,1.4,�k��,2,�k�k��,7.4,89.3,0,0,0,22.5,0,0,1003.4,1017.6
2023-03-27T03:21:00+09:00,1.4,�k�k��,2,�k�k��,7.4,89.4,0,0,0,22.5,0,0,1003.4,1017.6
2023-03-27T03:22:00+09:00,1.4,�k�k��,2,�k�k��,7.4,89.7,0,0,0,22.5,0,0,1003.5,1017.7
2023-03-27T03:23:00+09:00,1.3,�k�k��,2,�k�k��,7.4,90,0,0,0,22.5,0,0,1003.5,1017.7
2023-03-27T03:24:00+09:00,1.3,�k�k��,2,�k�k��,7.4,90.3,0,0,0,22.5,0,0,1003.5,1017.7
2023-03-27T03:25:00+09:00,1.3,�k�k��,2,�k��,7.5,90.4,0,0,0,22.5,0,0,1003.5,1017.7
2023-03-27T03:26:00+09:00,1.2,�k�k��,1.8,�k�k��,7.4,90.5,0,0,0,22.5,0,0,1003.6,1017.8
2023-03-27T03:27:00+09:00,1.2,�k��,1.8,�k�k��,7.3,90.3,0,0,0,22.5,0,0,1003.7,1018
2023-03-27T03:28:00+09:00,1.2,�k��,1.8,�k�k��,7.3,90.4,0,0,0,22.5,0,0,1003.7,1018
2023-03-27T03:29:00+09:00,1.1,�k��,1.8,�k�k��,7.3,90.4,0,0,0,22.5,0,0,1003.8,1018.1
2023-03-27T03:30:00+09:00,1.1,�k��,1.8,�k�k��,7.4,90.7,0,0,0,22.5,0,0,1003.9,1018.2
2023-03-27T03:31:00+09:00,1,�k��,1.7,�k�k��,7.4,90.9,0,0,0,22.5,0,0,1004,1018.3
2023-03-27T03:32:00+09:00,1,�k��,1.7,�k�k��,7.4,90.9,0,0,0,22.5,0,0,1004.1,1018.4
2023-03-27T03:33:00+09:00,1,�k��,1.6,�k��,7.4,90.9,0,0,0,22.5,0,0,1004.1,1018.4
2023-03-27T03:34:00+09:00,0.9,�k��,1.5,�k��,7.4,90.9,0,0,0,22.5,0,0,1004.2,1018.5
2023-03-27T03:35:00+09:00,0.9,�k��,1.4,�k�k��,7.5,91,0,0,0,22.5,0,0,1004.2,1018.5
2023-03-27T03:36:00+09:00,0.9,�k��,1.3,�k��,7.4,90.9,0,0,0,22.5,0,0,1004.1,1018.4
2023-03-27T03:37:00+09:00,0.8,�k��,1.3,�k��,7.4,90.8,0,0,0,22.5,0,0,1004.1,1018.4
2023-03-27T03:38:00+09:00,0.7,�k��,1.3,�k��,7.3,90.8,0,0,0,22.5,0,0,1004.1,1018.4
2023-03-27T03:39:00+09:00,0.7,�k��,1.3,�k��,7.4,90.9,0,0,0,22.5,0,0,1004.1,1018.4
2023-03-27T03:40:00+09:00,0.7,�k��,1.3,�k��,7.5,91.2,0,0,0,22.5,0,0,1004.1,1018.3
2023-03-27T03:41:00+09:00,0.7,�k��,1.3,�k��,7.5,91.4,0,0,0,22.5,0,0,1004.1,1018.3
2023-03-27T03:42:00+09:00,0.7,�k��,1.3,�k��,7.5,91.3,0,0,0,22.5,0,0,1004.2,1018.5
2023-03-27T03:43:00+09:00,0.6,�k��,1,�k��,7.5,91,0,0,0,22.5,0,0,1004.3,1018.6
2023-03-27T03:44:00+09:00,0.6,�k��,1,�k��,7.4,90.7,0,0,0,22.5,0,0,1004.3,1018.6
2023-03-27T03:45:00+09:00,0.5,���k��,1,�k��,7.4,90.7,0,0,0,22.5,0,0,1004.4,1018.7
2023-03-27T03:46:00+09:00,0.5,���k��,1,�k��,7.5,90.9,0,0,0,22.5,0,0,1004.4,1018.7
2023-03-27T03:47:00+09:00,0.5,���k��,1,�k��,7.4,90.9,0,0,0,22.5,0,0,1004.5,1018.8
2023-03-27T03:48:00+09:00,0.5,���k��,1,�k��,7.4,90.8,0,0,0,22.5,0,0,1004.6,1018.9
2023-03-27T03:49:00+09:00,0.5,���k��,1,�k��,7.4,91,0,0,0,22.5,0,0,1004.6,1018.9
2023-03-27T03:50:00+09:00,0.5,���k��,1,�k��,7.4,91.1,0,0,0,22.5,0,0,1004.6,1018.9
2023-03-27T03:51:00+09:00,0.4,���k��,1,�k��,7.4,91,0,0,0,22.5,0,0,1004.6,1018.9
2023-03-27T03:52:00+09:00,0.4,���k��,0.7,���k��,7.4,91.1,0,0,0,22.5,0,0,1004.6,1018.9
2023-03-27T03:53:00+09:00,0.4,���k��,0.7,���k��,7.5,91.2,0,0,0,22.5,0,0,1004.6,1018.9
2023-03-27T03:54:00+09:00,0.4,���k��,0.7,���k��,7.5,91.4,0,0,0,22.5,0,0,1004.6,1018.9
2023-03-27T03:55:00+09:00,0.4,���k��,1.2,�k��,7.5,91.5,0,0,0,22.5,0,0,1004.7,1019
2023-03-27T03:56:00+09:00,0.5,���k��,1.4,�k�k��,7.5,91.6,0,0,0,22.5,0,0,1004.6,1018.9
2023-03-27T03:57:00+09:00,0.6,�k��,1.4,�k�k��,7.6,91.8,0,0,0,22.5,0,0,1004.6,1018.9
2023-03-27T03:58:00+09:00,0.7,�k��,1.5,�k�k��,7.6,92,0,0,0,22.5,0,0,1004.6,1018.9
2023-03-27T03:59:00+09:00,0.7,�k��,1.5,�k�k��,7.6,91.9,0,0,0,22.5,0,0,1004.6,1018.9
2023-03-27T04:00:00+09:00,0.8,�k��,1.5,�k�k��,7.6,92,0,0,0,22.5,0,0,1004.6,1018.9
2023-03-27T04:01:00+09:00,0.9,�k��,1.8,�k��,7.6,91.9,0,0,0,22.5,0,0,1004.7,1019
2023-03-27T04:02:00+09:00,0.9,�k�k��,1.8,�k��,7.5,91.8,0,0,0,22.5,0,0,1004.7,1019
2023-03-27T04:03:00+09:00,0.9,�k�k��,1.8,�k��,7.5,91.8,0,0,0,22.5,0,0,1004.6,1018.9
2023-03-27T04:04:00+09:00,0.9,�k�k��,1.8,�k��,7.4,91.7,0,0,0,22.5,0,0,1004.7,1019
2023-03-27T04:05:00+09:00,0.9,�k�k��,1.8,�k��,7.5,91.7,0,0,0,22.5,0,0,1004.6,1018.9
2023-03-27T04:06:00+09:00,0.8,�k�k��,1.8,�k��,7.5,92,0,0,0,22.5,0,0,1004.7,1019
2023-03-27T04:07:00+09:00,0.8,�k�k��,1.8,�k��,7.4,91.9,0,0,0,22.5,0,0,1004.7,1019
2023-03-27T04:08:00+09:00,0.7,�k�k��,1.8,�k��,7.4,92.1,0,0,0,22.5,0,0,1004.7,1019
2023-03-27T04:09:00+09:00,0.7,�k�k��,1.8,�k��,7.4,92.3,0,0,0,22.5,0,0,1004.7,1019
2023-03-27T04:10:00+09:00,0.6,�k�k��,1.8,�k��,7.4,92.5,0,0,0,22.5,0,0,1004.7,1019
2023-03-27T04:11:00+09:00,0.6,�k�k��,1.2,�k�k��,7.4,92.6,0,0,0,22.5,0,0,1004.7,1019
2023-03-27T04:12:00+09:00,0.6,�k�k��,1.3,�k�k��,7.4,92.6,0,0,0,22.5,0,0,1004.7,1019
2023-03-27T04:13:00+09:00,0.7,�k�k��,1.3,�k�k��,7.3,92.8,0,0,0,22.5,0,0,1004.7,1019
2023-03-27T04:14:00+09:00,0.7,�k�k��,1.3,�k�k��,7.3,92.9,0,0,0,22.5,0,0,1004.7,1019
2023-03-27T04:15:00+09:00,0.8,�k�k��,1.6,�k�k��,7.3,93,0,0,0,22.5,0,0,1004.7,1019
2023-03-27T04:16:00+09:00,0.8,�k�k��,1.6,�k�k��,7.3,93.2,0,0,0,22.5,0,0,1004.7,1019
2023-03-27T04:17:00+09:00,0.9,�k�k��,1.6,�k�k��,7.4,93.5,0,0,0,22.5,0,0,1004.7,1019
2023-03-27T04:18:00+09:00,0.9,�k�k��,1.6,�k�k��,7.4,93.8,0,0,0,22.5,0,0,1004.6,1018.9
2023-03-27T04:19:00+09:00,1,�k�k��,1.8,�k��,7.4,93.9,0,0,0,22.5,0,0,1004.6,1018.9
2023-03-27T04:20:00+09:00,1.1,�k�k��,1.8,�k��,7.4,94,0,0,0,22.5,0,0,1004.6,1018.9
2023-03-27T04:21:00+09:00,1.1,�k�k��,1.8,�k��,7.4,94.1,0,0,0,22.5,0,0,1004.6,1018.9
2023-03-27T04:22:00+09:00,1.1,�k��,1.8,�k��,7.3,94,0,0,0,22.5,0,0,1004.6,1018.9
2023-03-27T04:23:00+09:00,1.1,�k��,1.8,�k��,7.3,94,0,0,0,22.5,0,0,1004.6,1018.9
2023-03-27T04:24:00+09:00,1.1,�k��,1.8,�k��,7.3,94.1,0,0,0,22.5,0,0,1004.7,1019
2023-03-27T04:25:00+09:00,1.2,�k��,1.8,�k��,7.3,94.2,0,0,0,22.5,0,0,1004.7,1019
2023-03-27T04:26:00+09:00,1.2,�k��,1.8,�k��,7.3,94.4,0,0,0,22.5,0,0,1004.7,1019
2023-03-27T04:27:00+09:00,1.2,�k��,1.8,�k��,7.2,94.3,0,0,0,22.5,0,0,1004.7,1019
2023-03-27T04:28:00+09:00,1.2,�k��,2.1,�k��,7.3,94.5,0,0,0,22.5,0,0,1004.7,1019
2023-03-27T04:29:00+09:00,1.1,�k��,2.1,�k��,7.3,94.6,0,0,0,22.5,0,0,1004.7,1019
2023-03-27T04:30:00+09:00,1.1,�k��,2.1,�k��,7.3,94.8,0,0,0,22.5,0,0,1004.7,1019
2023-03-27T04:31:00+09:00,1.1,�k��,2.1,�k��,7.4,94.9,0,0,0,22.5,0,0,1004.7,1019
2023-03-27T04:32:00+09:00,1.1,�k��,2.1,�k��,7.4,95,0,0,0,22.5,0,0,1004.7,1019
2023-03-27T04:33:00+09:00,1.1,�k��,2.1,�k��,7.4,94.9,0,0,0,22.5,0,0,1004.7,1019
2023-03-27T04:34:00+09:00,1,�k��,2.1,�k��,7.5,95,0,0,0,22.5,0,0,1004.7,1019
2023-03-27T04:35:00+09:00,1,�k��,2.1,�k��,7.5,95.1,0,0,0,22.5,0,0,1004.7,1019
2023-03-27T04:36:00+09:00,0.9,�k��,2.1,�k��,7.5,95.1,0,0,0,22.5,0,0,1004.7,1019
2023-03-27T04:37:00+09:00,0.9,�k��,2.1,�k��,7.7,95.2,0,0,0,22.5,0,0,1004.7,1018.9
2023-03-27T04:38:00+09:00,0.9,�k��,1.8,���k��,7.4,94.7,0,0,0,22.5,0,0,1004.6,1018.9
2023-03-27T04:39:00+09:00,0.9,�k��,1.9,�k��,7.4,94.2,0,0,0,22.5,0,0,1004.6,1018.9
2023-03-27T04:40:00+09:00,1,�k��,2,�k�k��,7.4,93.9,0,0,0,22.5,0,0,1004.6,1018.9
2023-03-27T04:41:00+09:00,1,�k��,2,�k�k��,7.4,93.9,0,0,0,22.5,0,0,1004.7,1019
2023-03-27T04:42:00+09:00,1,�k��,2,�k�k��,7.5,94.1,0,0,0,22.5,0,0,1004.7,1019
2023-03-27T04:43:00+09:00,0.9,�k��,2,�k�k��,7.4,93.9,0,0,0,22.5,0,0,1004.7,1019
2023-03-27T04:44:00+09:00,1,�k��,2,�k�k��,7.4,93.7,0,0,0,22.5,0,0,1004.7,1019
2023-03-27T04:45:00+09:00,1,�k��,2,�k�k��,7.4,93.5,0,0,0,22.5,0,0,1004.7,1019
2023-03-27T04:46:00+09:00,1.1,�k��,2,�k�k��,7.4,93.5,0,0,0,22.5,0,0,1004.8,1019.1
2023-03-27T04:47:00+09:00,1.1,�k��,2,�k�k��,7.5,93.7,0,0,0,22.5,0,0,1004.7,1019
2023-03-27T04:48:00+09:00,1.1,�k��,2,�k�k��,7.5,93.7,0,0,0,22.5,0,0,1004.7,1019
2023-03-27T04:49:00+09:00,1,�k��,2,�k�k��,7.5,93.7,0,0,0,22.5,0,0,1004.7,1019
2023-03-27T04:50:00+09:00,0.9,�k��,1.9,�k��,7.4,93.5,0,0,0,22.5,0,0,1004.7,1019